QPF
0.04 0.05 0.05 0.06 0.05 0.06 0.08 0.09 0.10 0.10 0.08 0.06 0.05 0.04 0.04 0.04 0.04 0.04 0.04 0.03 0.05 0.06 0.09 0.13 0.20 0.24 0.21 0.21 0.19 0.15 0.11 0.10 0.08 0.07 0.04 0.04 0.04 0.04 0.03 0.04 0.05 0.05 0.04
0.05 0.06 0.06 0.06 0.05 0.07 0.08 0.09 0.09 0.11 0.11 0.09 0.07 0.06 0.06 0.07 0.07 0.06 0.05 0.04 0.04 0.04 0.08 0.11 0.19 0.25 0.28 0.25 0.18 0.14 0.15 0.13 0.11 0.09 0.06 0.05 0.05 0.05 0.05 0.05 0.07 0.07 0.06
0.06 0.05 0.05 0.06 0.06 0.07 0.07 0.07 0.07 0.09 0.09 0.08 0.07 0.08 0.09 0.08 0.08 0.08 0.06 0.06 0.06 0.04 0.05 0.08 0.14 0.18 0.21 0.19 0.19 0.18 0.17 0.15 0.12 0.11 0.10 0.08 0.07 0.06 0.06 0.07 0.09 0.10 0.09
0.05 0.05 0.05 0.05 0.05 0.06 0.07 0.08 0.08 0.09 0.09 0.09 0.10 0.09 0.08 0.08 0.07 0.06 0.05 0.06 0.06 0.04 0.05 0.06 0.07 0.10 0.14 0.17 0.17 0.18 0.19 0.17 0.14 0.12 0.11 0.10 0.09 0.08 0.07 0.08 0.10 0.11 0.09
0.05 0.05 0.06 0.05 0.05 0.06 0.07 0.07 0.08 0.09 0.10 0.10 0.09 0.08 0.07 0.07 0.06 0.04 0.05 0.05 0.05 0.05 0.06 0.05 0.05 0.07 0.10 0.11 0.11 0.13 0.14 0.16 0.16 0.17 0.14 0.11 0.10 0.09 0.09 0.11 0.12 0.13 0.11
0.06 0.05 0.05 0.05 0.04 0.05 0.06 0.06 0.07 0.09 0.10 0.11 0.08 0.07 0.05 0.05 0.05 0.04 0.04 0.04 0.05 0.04 0.05 0.06 0.08 0.08 0.09 0.09 0.09 0.08 0.09 0.12 0.14 0.13 0.13 0.13 0.12 0.10 0.11 0.12 0.13 0.11 0.10
0.04 0.04 0.04 0.04 0.04 0.04 0.04 0.05 0.06 0.09 0.11 0.13 0.14 0.12 0.07 0.04 0.04 0.04 0.04 0.05 0.05 0.05 0.06 0.07 0.08 0.09 0.09 0.09 0.08 0.07 0.09 0.10 0.10 0.10 0.10 0.12 0.11 0.08 0.07 0.07 0.08 0.06 0.06
0.03 0.02 0.03 0.03 0.03 0.03 0.03 0.05 0.07 0.10 0.12 0.12 0.13 0.13 0.09 0.06 0.04 0.03 0.04 0.05 0.04 0.05 0.06 0.07 0.08 0.09 0.10 0.11 0.08 0.06 0.06 0.06 0.08 0.08 0.09 0.09 0.09 0.07 0.07 0.07 0.07 0.06 0.07
0.02 0.02 0.03 0.03 0.03 0.03 0.04 0.05 0.07 0.09 0.11 0.12 0.13 0.14 0.12 0.09 0.06 0.04 0.03 0.03 0.03 0.03 0.04 0.06 0.07 0.07 0.07 0.08 0.07 0.05 0.04 0.04 0.05 0.08 0.09 0.07 0.07 0.06 0.06 0.07 0.06 0.06 0.06
0.02 0.01 0.02 0.02 0.02 0.03 0.04 0.04 0.06 0.08 0.10 0.11 0.12 0.13 0.12 0.10 0.09 0.08 0.05 0.03 0.02 0.02 0.03 0.03 0.04 0.06 0.07 0.07 0.06 0.05 0.04 0.03 0.04 0.09 0.10 0.09 0.07 0.07 0.06 0.06 0.05 0.05 0.05
0.02 0.02 0.01 0.02 0.02 0.02 0.03 0.04 0.05 0.07 0.09 0.11 0.11 0.10 0.09 0.10 0.09 0.08 0.08 0.06 0.04 0.04 0.04 0.03 0.04 0.07 0.08 0.07 0.05 0.04 0.03 0.04 0.06 0.08 0.09 0.12 0.12 0.10 0.08 0.07 0.06 0.06 0.07
0.02 0.01 0.01 0.01 0.02 0.02 0.03 0.05 0.07 0.08 0.09 0.10 0.11 0.13 0.14 0.13 0.11 0.10 0.08 0.07 0.05 0.04 0.03 0.04 0.04 0.06 0.07 0.08 0.07 0.08 0.05 0.05 0.06 0.07 0.07 0.08 0.10 0.10 0.08 0.06 0.05 0.06 0.08
0.01 0.01 0.01 0.02 0.02 0.02 0.02 0.04 0.06 0.08 0.08 0.09 0.08 0.09 0.12 0.15 0.13 0.12 0.11 0.09 0.07 0.06 0.05 0.05 0.06 0.06 0.06 0.08 0.10 0.09 0.06 0.04 0.04 0.04 0.04 0.05 0.06 0.07 0.08 0.06 0.05 0.06 0.07
0.01 0.02 0.02 0.03 0.03 0.03 0.02 0.03 0.03 0.05 0.07 0.08 0.09 0.10 0.08 0.08 0.09 0.10 0.12 0.11 0.10 0.07 0.05 0.05 0.06 0.06 0.05 0.06 0.09 0.11 0.09 0.06 0.04 0.04 0.03 0.03 0.04 0.04 0.04 0.04 0.04 0.05 0.05
0.01 0.01 0.02 0.03 0.02 0.02 0.02 0.03 0.05 0.05 0.06 0.06 0.07 0.10 0.08 0.07 0.08 0.08 0.09 0.10 0.10 0.08 0.05 0.04 0.04 0.04 0.04 0.04 0.05 0.06 0.07 0.07 0.06 0.05 0.05 0.05 0.04 0.04 0.04 0.03 0.03 0.03 0.03
0.01 0.02 0.02 0.02 0.02 0.01 0.02 0.03 0.05 0.06 0.06 0.05 0.05 0.05 0.05 0.05 0.06 0.07 0.06 0.07 0.08 0.08 0.07 0.05 0.04 0.04 0.04 0.03 0.04 0.04 0.04 0.05 0.06 0.05 0.05 0.05 0.04 0.03 0.03 0.03 0.04 0.05 0.07
0.03 0.02 0.02 0.01 0.01 0.02 0.02 0.03 0.04 0.05 0.06 0.06 0.05 0.04 0.04 0.04 0.04 0.05 0.06 0.06 0.07 0.07 0.07 0.06 0.05 0.05 0.05 0.05 0.05 0.04 0.03 0.04 0.04 0.04 0.03 0.03 0.02 0.02 0.02 0.03 0.05 0.07 0.08
0.03 0.02 0.02 0.02 0.01 0.01 0.02 0.02 0.03 0.03 0.03 0.04 0.04 0.04 0.04 0.04 0.04 0.04 0.05 0.07 0.08 0.07 0.06 0.05 0.06 0.06 0.05 0.05 0.06 0.05 0.03 0.04 0.03 0.04 0.03 0.04 0.04 0.03 0.03 0.03 0.05 0.07 0.09
0.01 0.01 0.02 0.02 0.01 0.01 0.01 0.02 0.02 0.02 0.02 0.02 0.02 0.02 0.02 0.03 0.03 0.03 0.03 0.04 0.05 0.06 0.06 0.04 0.05 0.05 0.05 0.05 0.06 0.06 0.04 0.04 0.04 0.04 0.05 0.05 0.05 0.06 0.06 0.05 0.06 0.07 0.09
0.01 0.01 0.01 0.01 0.01 0.01 0.01 0.01 0.01 0.01 0.01 0.01 0.01 0.02 0.02 0.03 0.02 0.02 0.02 0.02 0.03 0.04 0.04 0.04 0.04 0.04 0.04 0.04 0.05 0.05 0.06 0.04 0.03 0.03 0.03 0.03 0.03 0.05 0.08 0.07 0.06 0.06 0.07
0.00 0.00 0.01 0.01 0.01 0.01 0.01 0.01 0.01 0.01 0.01 0.01 0.01 0.01 0.02 0.02 0.02 0.02 0.02 0.02 0.03 0.04 0.04 0.03 0.04 0.04 0.03 0.03 0.04 0.04 0.05 0.05 0.04 0.03 0.02 0.01 0.01 0.02 0.03 0.05 0.04 0.04 0.04
0.01 0.01 0.01 0.01 0.01 0.01 0.01 0.01 0.01 0.01 0.01 0.01 0.01 0.01 0.01 0.01 0.01 0.01 0.01 0.01 0.02 0.03 0.04 0.04 0.04 0.05 0.04 0.03 0.04 0.04 0.04 0.04 0.04 0.03 0.02 0.02 0.01 0.01 0.01 0.01 0.01 0.01 0.01
0.01 0.01 0.01 0.01 0.01 0.01 0.01 0.01 0.02 0.02 0.02 0.01 0.01 0.01 0.01 0.01 0.01 0.01 0.01 0.01 0.01 0.01 0.02 0.04 0.05 0.05 0.04 0.04 0.04 0.04 0.04 0.04 0.03 0.02 0.02 0.02 0.01 0.01 0.00 0.00 0.01 0.01 0.01
0.01 0.01 0.01 0.01 0.01 0.01 0.00 0.01 0.01 0.02 0.02 0.01 0.01 0.01 0.02 0.02 0.01 0.01 0.01 0.01 0.02 0.02 0.03 0.04 0.04 0.05 0.05 0.04 0.04 0.04 0.04 0.03 0.03 0.02 0.01 0.02 0.01 0.01 0.01 0.01 0.01 0.01 0.00
0.01 0.01 0.01 0.01 0.02 0.01 0.00 0.00 0.01 0.02 0.02 0.01 0.01 0.01 0.02 0.02 0.02 0.02 0.02 0.02 0.02 0.02 0.02 0.02 0.02 0.03 0.03 0.02 0.02 0.03 0.03 0.04 0.04 0.03 0.02 0.02 0.03 0.02 0.01 0.02 0.02 0.02 0.01
0.01 0.01 0.01 0.01 0.02 0.01 0.01 0.01 0.01 0.02 0.02 0.01 0.01 0.01 0.01 0.01 0.02 0.02 0.02 0.04 0.03 0.02 0.02 0.02 0.02 0.01 0.01 0.01 0.01 0.02 0.02 0.02 0.03 0.04 0.02 0.02 0.03 0.02 0.02 0.02 0.01 0.02 0.02
MSLP
1016.63 1016.74 1016.77 1016.75 1016.70 1016.64 1016.59 1016.58 1016.60 1016.64 1016.68 1016.69 1016.67 1016.61 1016.53 1016.46 1016.43 1016.47 1016.60 1016.84 1017.16 1017.56 1017.99 1018.43 1018.84 1019.20 1019.49 1019.70 1019.85 1019.94 1019.99 1020.01 1020.02 1020.03 1020.05 1020.08 1020.12 1020.17 1020.23 1020.30 1020.37 1020.45 1020.53
1016.49 1016.62 1016.66 1016.63 1016.56 1016.47 1016.38 1016.32 1016.30 1016.31 1016.34 1016.35 1016.35 1016.31 1016.25 1016.18 1016.14 1016.15 1016.25 1016.44 1016.74 1017.11 1017.55 1018.01 1018.47 1018.88 1019.24 1019.53 1019.75 1019.90 1020.01 1020.08 1020.14 1020.19 1020.24 1020.30 1020.37 1020.45 1020.53 1020.61 1020.70 1020.79 1020.90
1016.39 1016.54 1016.61 1016.60 1016.53 1016.42 1016.30 1016.21 1016.15 1016.12 1016.12 1016.12 1016.12 1016.09 1016.03 1015.97 1015.91 1015.89 1015.95 1016.09 1016.33 1016.67 1017.09 1017.55 1018.04 1018.50 1018.92 1019.28 1019.57 1019.80 1019.98 1020.12 1020.23 1020.33 1020.43 1020.53 1020.63 1020.74 1020.84 1020.95 1021.06 1021.17 1021.30
1016.29 1016.47 1016.58 1016.60 1016.55 1016.44 1016.31 1016.18 1016.08 1016.01 1015.98 1015.96 1015.95 1015.92 1015.87 1015.80 1015.73 1015.68 1015.70 1015.79 1015.98 1016.27 1016.64 1017.09 1017.57 1018.06 1018.52 1018.94 1019.31 1019.62 1019.87 1020.08 1020.26 1020.43 1020.58 1020.73 1020.87 1021.01 1021.15 1021.28 1021.42 1021.56 1021.72
1016.15 1016.37 1016.52 1016.58 1016.55 1016.46 1016.32 1016.17 1016.03 1015.93 1015.86 1015.83 1015.80 1015.77 1015.72 1015.66 1015.58 1015.52 1015.50 1015.54 1015.67 1015.90 1016.22 1016.63 1017.09 1017.58 1018.07 1018.53 1018.96 1019.35 1019.68 1019.97 1020.23 1020.47 1020.68 1020.89 1021.08 1021.26 1021.43 1021.60 1021.76 1021.93 1022.12
1015.97 1016.20 1016.38 1016.48 1016.49 1016.41 1016.28 1016.12 1015.96 1015.83 1015.74 1015.68 1015.64 1015.61 1015.58 1015.53 1015.46 1015.40 1015.35 1015.36 1015.43 1015.59 1015.85 1016.19 1016.61 1017.08 1017.58 1018.08 1018.55 1019.01 1019.42 1019.80 1020.14 1020.45 1020.73 1020.99 1021.24 1021.46 1021.67 1021.87 1022.07 1022.27 1022.48
1015.74 1015.98 1016.18 1016.30 1016.34 1016.29 1016.17 1016.01 1015.84 1015.69 1015.58 1015.51 1015.48 1015.46 1015.45 1015.42 1015.37 1015.32 1015.26 1015.23 1015.26 1015.35 1015.53 1015.80 1016.16 1016.59 1017.07 1017.58 1018.10 1018.61 1019.09 1019.55 1019.97 1020.36 1020.72 1021.05 1021.34 1021.62 1021.87 1022.11 1022.34 1022.57 1022.80
1015.50 1015.73 1015.93 1016.07 1016.13 1016.10 1016.00 1015.85 1015.69 1015.53 1015.42 1015.35 1015.32 1015.32 1015.34 1015.34 1015.32 1015.28 1015.22 1015.17 1015.14 1015.17 1015.27 1015.46 1015.75 1016.12 1016.57 1017.07 1017.61 1018.16 1018.70 1019.23 1019.73 1020.20 1020.63 1021.03 1021.39 1021.71 1022.01 1022.28 1022.54 1022.80 1023.05
1015.28 1015.48 1015.67 1015.81 1015.89 1015.89 1015.82 1015.69 1015.54 1015.40 1015.29 1015.22 1015.21 1015.23 1015.27 1015.31 1015.31 1015.29 1015.23 1015.15 1015.08 1015.04 1015.06 1015.16 1015.36 1015.66 1016.06 1016.54 1017.07 1017.65 1018.24 1018.84 1019.41 1019.95 1020.46 1020.92 1021.34 1021.72 1022.07 1022.38 1022.68 1022.95 1023.22
1015.11 1015.27 1015.44 1015.59 1015.68 1015.71 1015.67 1015.57 1015.45 1015.33 1015.23 1015.18 1015.18 1015.22 1015.28 1015.34 1015.36 1015.34 1015.27 1015.17 1015.05 1014.94 1014.87 1014.89 1014.99 1015.22 1015.55 1015.98 1016.50 1017.09 1017.71 1018.35 1018.99 1019.60 1020.18 1020.71 1021.20 1021.64 1022.04 1022.40 1022.73 1023.03 1023.31
1014.97 1015.11 1015.27 1015.42 1015.54 1015.60 1015.60 1015.54 1015.45 1015.35 1015.28 1015.24 1015.25 1015.29 1015.36 1015.42 1015.45 1015.43 1015.34 1015.21 1015.03 1014.86 1014.71 1014.63 1014.65 1014.78 1015.04 1015.42 1015.91 1016.48 1017.12 1017.80 1018.48 1019.16 1019.80 1020.41 1020.96 1021.47 1021.93 1022.34 1022.70 1023.03 1023.33
1014.84 1014.98 1015.15 1015.32 1015.47 1015.57 1015.62 1015.61 1015.55 1015.48 1015.42 1015.39 1015.40 1015.44 1015.49 1015.54 1015.56 1015.52 1015.42 1015.24 1015.02 1014.79 1014.57 1014.40 1014.33 1014.38 1014.56 1014.88 1015.32 1015.88 1016.52 1017.21 1017.93 1018.66 1019.37 1020.04 1020.66 1021.24 1021.75 1022.21 1022.62 1022.99 1023.31
1014.70 1014.86 1015.06 1015.27 1015.46 1015.62 1015.71 1015.75 1015.74 1015.69 1015.64 1015.61 1015.60 1015.62 1015.65 1015.68 1015.67 1015.61 1015.48 1015.27 1015.01 1014.72 1014.44 1014.21 1014.06 1014.04 1014.15 1014.41 1014.81 1015.34 1015.97 1016.67 1017.42 1018.18 1018.94 1019.67 1020.36 1020.99 1021.57 1022.08 1022.53 1022.93 1023.27
1014.51 1014.72 1014.97 1015.24 1015.49 1015.71 1015.86 1015.94 1015.96 1015.94 1015.89 1015.84 1015.81 1015.80 1015.80 1015.80 1015.76 1015.67 1015.51 1015.29 1015.00 1014.68 1014.36 1014.08 1013.89 1013.82 1013.88 1014.10 1014.46 1014.96 1015.57 1016.28 1017.04 1017.82 1018.62 1019.39 1020.12 1020.81 1021.43 1021.99 1022.47 1022.89 1023.25
1014.26 1014.55 1014.87 1015.21 1015.53 1015.81 1016.02 1016.14 1016.19 1016.17 1016.12 1016.06 1016.00 1015.95 1015.91 1015.87 1015.81 1015.70 1015.52 1015.29 1015.00 1014.67 1014.35 1014.07 1013.86 1013.77 1013.81 1014.01 1014.35 1014.83 1015.43 1016.12 1016.88 1017.67 1018.48 1019.27 1020.03 1020.74 1021.39 1021.97 1022.48 1022.91 1023.27
1013.99 1014.36 1014.76 1015.18 1015.57 1015.91 1016.16 1016.32 1016.39 1016.37 1016.31 1016.22 1016.13 1016.04 1015.97 1015.90 1015.81 1015.69 1015.52 1015.29 1015.02 1014.72 1014.43 1014.17 1013.99 1013.92 1013.98 1014.18 1014.52 1015.00 1015.59 1016.26 1017.01 1017.78 1018.57 1019.35 1020.10 1020.81 1021.46 1022.04 1022.55 1022.98 1023.33
1013.73 1014.19 1014.68 1015.17 1015.62 1016.01 1016.29 1016.47 1016.55 1016.53 1016.44 1016.33 1016.20 1016.09 1015.98 1015.89 1015.79 1015.66 1015.50 1015.31 1015.08 1014.83 1014.60 1014.40 1014.29 1014.27 1014.38 1014.62 1014.99 1015.48 1016.06 1016.72 1017.43 1018.17 1018.92 1019.65 1020.35 1021.01 1021.62 1022.17 1022.65 1023.06 1023.40
1013.55 1014.09 1014.64 1015.19 1015.69 1016.11 1016.42 1016.60 1016.67 1016.64 1016.53 1016.39 1016.24 1016.10 1015.97 1015.86 1015.75 1015.64 1015.50 1015.35 1015.17 1015.00 1014.84 1014.74 1014.71 1014.78 1014.97 1015.27 1015.68 1016.19 1016.78 1017.42 1018.08 1018.76 1019.43 1020.08 1020.69 1021.27 1021.81 1022.30 1022.73 1023.10 1023.41
1013.48 1014.08 1014.69 1015.28 1015.81 1016.24 1016.54 1016.72 1016.77 1016.72 1016.60 1016.44 1016.27 1016.11 1015.97 1015.85 1015.75 1015.64 1015.53 1015.42 1015.30 1015.20 1015.14 1015.13 1015.20 1015.37 1015.65 1016.03 1016.49 1017.03 1017.61 1018.22 1018.83 1019.42 1019.99 1020.53 1021.03 1021.49 1021.93 1022.33 1022.69 1023.01 1023.28
1013.54 1014.18 1014.83 1015.43 1015.96 1016.38 1016.67 1016.83 1016.87 1016.80 1016.67 1016.50 1016.33 1016.16 1016.02 1015.89 1015.79 1015.70 1015.61 1015.53 1015.47 1015.43 1015.45 1015.53 1015.70 1015.97 1016.33 1016.78 1017.30 1017.86 1018.43 1019.00 1019.54 1020.03 1020.48 1020.88 1021.24 1021.57 1021.88 1022.18 1022.46 1022.72 1022.96
1013.69 1014.36 1015.02 1015.62 1016.14 1016.53 1016.80 1016.93 1016.96 1016.88 1016.75 1016.59 1016.42 1016.26 1016.12 1016.01 1015.91 1015.83 1015.76 1015.70 1015.67 1015.68 1015.76 1015.91 1016.15 1016.49 1016.93 1017.43 1017.98 1018.54 1019.10 1019.61 1020.07 1020.45 1020.77 1021.03 1021.24 1021.43 1021.62 1021.80 1022.00 1022.20 1022.41
1013.89 1014.58 1015.23 1015.81 1016.29 1016.66 1016.90 1017.01 1017.03 1016.96 1016.85 1016.71 1016.57 1016.43 1016.32 1016.22 1016.13 1016.05 1015.98 1015.93 1015.92 1015.95 1016.06 1016.25 1016.54 1016.92 1017.38 1017.91 1018.46 1019.01 1019.53 1019.97 1020.33 1020.61 1020.79 1020.91 1020.99 1021.05 1021.11 1021.20 1021.32 1021.47 1021.65
1014.08 1014.77 1015.41 1015.95 1016.40 1016.73 1016.94 1017.05 1017.08 1017.04 1016.96 1016.86 1016.77 1016.68 1016.60 1016.52 1016.45 1016.37 1016.30 1016.25 1016.23 1016.26 1016.37 1016.56 1016.85 1017.24 1017.70 1018.21 1018.73 1019.24 1019.69 1020.05 1020.32 1020.48 1020.55 1020.55 1020.50 1020.45 1020.41 1020.41 1020.47 1020.57 1020.72
1014.23 1014.91 1015.51 1016.03 1016.44 1016.74 1016.94 1017.05 1017.10 1017.11 1017.08 1017.05 1017.02 1016.99 1016.96 1016.91 1016.86 1016.79 1016.72 1016.65 1016.61 1016.62 1016.70 1016.87 1017.12 1017.47 1017.88 1018.34 1018.80 1019.23 1019.60 1019.87 1020.04 1020.10 1020.08 1019.98 1019.85 1019.71 1019.60 1019.54 1019.54 1019.61 1019.73
1014.32 1014.98 1015.56 1016.03 1016.41 1016.69 1016.89 1017.02 1017.11 1017.18 1017.23 1017.27 1017.32 1017.35 1017.37 1017.37 1017.34 1017.28 1017.20 1017.11 1017.05 1017.02 1017.06 1017.17 1017.37 1017.65 1017.98 1018.35 1018.72 1019.06 1019.33 1019.51 1019.59 1019.57 1019.47 1019.31 1019.12 1018.94 1018.78 1018.68 1018.65 1018.69 1018.78
1014.39 1015.03 1015.57 1016.01 1016.36 1016.63 1016.84 1017.01 1017.14 1017.27 1017.40 1017.52 1017.64 1017.74 1017.81 1017.84 1017.84 1017.78 1017.70 1017.60 1017.51 1017.45 1017.43 1017.48 1017.61 1017.80 1018.04 1018.30 1018.56 1018.79 1018.96 1019.05 1019.06 1018.98 1018.83 1018.64 1018.43 1018.22 1018.05 1017.94 1017.88 1017.89 1017.94
Thickness
5719 5718 5716 5714 5714 5714 5713 5711 5710 5710 5710 5710 5710 5711 5711 5712 5712 5712 5712 5709 5708 5707 5707 5707 5706 5704 5703 5702 5701 5701 5700 5699 5698 5698 5698 5697 5697 5697 5696 5696 5695 5694 5693
5714 5713 5712 5710 5711 5710 5709 5708 5707 5706 5706 5706 5707 5707 5706 5708 5707 5706 5706 5706 5705 5705 5704 5704 5703 5702 5701 5700 5700 5699 5698 5698 5697 5697 5696 5696 5695 5695 5694 5694 5693 5692 5691
5708 5708 5709 5707 5707 5705 5704 5703 5703 5702 5702 5703 5703 5703 5702 5701 5701 5701 5701 5702 5703 5702 5701 5701 5701 5700 5699 5699 5698 5698 5697 5696 5696 5695 5695 5694 5694 5693 5693 5692 5691 5690 5688
5703 5703 5704 5703 5701 5701 5700 5699 5699 5699 5698 5698 5698 5698 5699 5697 5696 5696 5697 5698 5699 5700 5699 5698 5697 5697 5697 5696 5696 5695 5695 5694 5694 5693 5693 5692 5692 5692 5691 5690 5689 5687 5686
5698 5698 5698 5697 5695 5696 5695 5695 5695 5693 5693 5692 5693 5693 5694 5694 5693 5693 5694 5694 5694 5695 5695 5694 5693 5693 5693 5693 5692 5692 5692 5691 5691 5690 5690 5690 5690 5690 5689 5688 5687 5685 5684
5692 5692 5692 5690 5690 5690 5689 5688 5687 5687 5687 5687 5689 5690 5689 5690 5690 5690 5690 5690 5690 5691 5691 5691 5690 5690 5689 5689 5689 5688 5688 5688 5688 5687 5687 5687 5688 5688 5687 5687 5686 5684 5682
5686 5685 5687 5685 5684 5684 5682 5683 5682 5683 5683 5683 5682 5682 5684 5686 5686 5685 5685 5686 5687 5687 5686 5686 5687 5687 5686 5685 5684 5684 5684 5684 5684 5683 5684 5684 5684 5685 5685 5684 5683 5682 5680
5679 5681 5679 5679 5678 5677 5676 5676 5675 5676 5678 5678 5677 5676 5676 5678 5679 5681 5680 5680 5681 5681 5681 5681 5680 5681 5681 5681 5680 5679 5679 5679 5679 5680 5680 5681 5681 5681 5681 5681 5680 5678 5677
5673 5672 5672 5672 5671 5671 5672 5670 5669 5669 5670 5672 5673 5671 5670 5672 5672 5673 5673 5674 5674 5675 5675 5675 5675 5675 5675 5676 5676 5674 5675 5675 5676 5676 5676 5677 5677 5677 5676 5676 5675 5674 5672
5667 5666 5666 5665 5665 5665 5664 5664 5665 5663 5663 5665 5666 5666 5666 5667 5664 5664 5666 5668 5668 5668 5668 5669 5670 5670 5671 5671 5670 5670 5670 5671 5671 5672 5672 5672 5672 5672 5671 5671 5670 5669 5668
5661 5660 5659 5658 5658 5659 5658 5657 5656 5656 5657 5658 5660 5660 5660 5660 5661 5658 5659 5660 5660 5662 5662 5662 5663 5664 5665 5665 5665 5665 5665 5666 5666 5667 5667 5667 5667 5666 5666 5666 5665 5664 5662
5656 5655 5653 5652 5652 5652 5650 5650 5649 5650 5650 5651 5652 5654 5654 5655 5656 5655 5654 5655 5655 5655 5655 5656 5657 5658 5658 5659 5659 5659 5660 5660 5661 5661 5661 5661 5660 5660 5660 5659 5658 5657 5656
5650 5647 5647 5645 5645 5644 5643 5643 5643 5644 5644 5644 5645 5647 5648 5649 5650 5649 5649 5650 5650 5650 5650 5651 5652 5652 5652 5652 5652 5652 5652 5653 5653 5654 5654 5653 5653 5653 5652 5652 5651 5650 5649
5642 5640 5638 5638 5638 5637 5637 5637 5638 5638 5638 5638 5639 5640 5641 5643 5644 5644 5644 5644 5644 5645 5646 5645 5645 5645 5645 5645 5644 5644 5645 5645 5645 5646 5646 5646 5646 5645 5644 5644 5643 5642 5641
5634 5633 5632 5631 5631 5630 5630 5630 5632 5631 5632 5632 5634 5634 5635 5637 5637 5638 5639 5639 5639 5639 5641 5640 5639 5638 5638 5637 5636 5638 5638 5637 5638 5638 5638 5638 5637 5637 5637 5636 5635 5634 5632
5626 5625 5625 5625 5624 5624 5624 5624 5625 5625 5625 5626 5627 5628 5629 5631 5631 5632 5633 5634 5635 5636 5636 5636 5634 5633 5631 5631 5630 5631 5631 5631 5631 5631 5630 5630 5630 5629 5629 5628 5627 5626 5625
5618 5618 5618 5618 5617 5617 5617 5617 5618 5618 5618 5619 5620 5621 5623 5623 5625 5626 5627 5628 5629 5630 5629 5629 5627 5625 5624 5624 5624 5625 5625 5625 5625 5623 5622 5622 5621 5621 5621 5620 5619 5618 5617
5612 5611 5610 5610 5610 5611 5610 5610 5611 5611 5612 5612 5613 5614 5615 5617 5617 5619 5620 5621 5623 5623 5623 5621 5620 5618 5617 5617 5617 5618 5618 5619 5618 5616 5616 5615 5614 5614 5613 5613 5612 5611 5610
5604 5604 5603 5603 5603 5603 5604 5603 5604 5605 5605 5606 5607 5608 5608 5609 5610 5612 5613 5615 5616 5618 5617 5616 5615 5613 5611 5611 5611 5611 5612 5611 5612 5611 5609 5608 5608 5607 5606 5606 5605 5604 5603
5597 5597 5597 5597 5596 5597 5597 5596 5597 5597 5598 5599 5600 5601 5602 5603 5604 5605 5606 5608 5609 5610 5610 5611 5610 5608 5606 5605 5605 5605 5605 5606 5607 5607 5605 5603 5602 5601 5601 5600 5600 5599 5598
5591 5590 5590 5590 5589 5590 5589 5588 5589 5590 5591 5592 5594 5595 5596 5595 5595 5596 5599 5601 5603 5604 5605 5606 5605 5604 5602 5600 5601 5602 5601 5601 5600 5601 5601 5601 5600 5599 5598 5596 5595 5594 5593
5583 5583 5583 5583 5583 5582 5578 5577 5579 5583 5585 5586 5587 5588 5589 5589 5589 5589 5590 5591 5593 5597 5599 5600 5600 5599 5598 5598 5598 5598 5598 5598 5597 5597 5597 5597 5597 5597 5597 5596 5593 5592 5590
5576 5576 5576 5576 5575 5573 5570 5570 5571 5576 5578 5579 5580 5582 5585 5585 5586 5587 5585 5585 5586 5587 5589 5592 5594 5593 5593 5593 5592 5592 5592 5594 5594 5592 5592 5593 5594 5594 5594 5594 5591 5589 5588
5570 5569 5569 5569 5568 5566 5563 5564 5566 5570 5573 5573 5574 5575 5577 5578 5580 5581 5582 5582 5582 5582 5583 5585 5586 5587 5587 5586 5587 5588 5587 5587 5586 5586 5587 5589 5591 5592 5594 5591 5589 5587 5586
5564 5564 5563 5562 5562 5560 5557 5559 5560 5566 5567 5568 5569 5569 5571 5572 5570 5572 5576 5576 5576 5575 5575 5576 5577 5578 5578 5579 5580 5582 5583 5584 5584 5585 5585 5587 5589 5590 5592 5592 5589 5586 5585
5559 5559 5558 5557 5557 5556 5552 5553 5554 5562 5563 5564 5565 5565 5564 5565 5563 5565 5570 5571 5571 5571 5572 5572 5571 5572 5573 5574 5574 5576 5581 5583 5584 5584 5584 5584 5587 5589 5589 5591 5591 5588 5585